STARLINK-11324 [DTC]

Last updated on Thu Nov 21 2024 00:02:05 GMT+0000 (Coordinated Universal Time)

1 61879U 24204F 24325.58335648 -.00484669 00000+0 -19471-2 0 9993 2 61879 53.1651 174.8902 0000548 83.3740 189.4128 15.86860260 3027
UTC large
Height (km)
Speed (km/s)
/
Latitude / Longitude
Inclination (degrees)
Orbital Period (minutes)
Azimuth
Elevation
Range (km)
Doppler Factor

Next 0 passes for location: London (51.5072 / 0.1276)

Sorry there are no passes over London.